Location: Gebenbach
(49.5378°N, 11.8735°E)
Time: 02:13:29
(UTC+00:00)

Lacrosse 5 - Pass Details

Date: 29 October 2020
Orbit: 716 x 723 km, 57.0° (Epoch: 06 November)

Event Time Altitude Azimuth Distance (km) Brightness Sun altitude
Rises 18:12:36 0° 298° (WNW) 3,125 6.3 -22.8°
Reaches altitude 10° 18:15:05 10° 305° (NW) 2,204 5.2 -23.2°
Maximum altitude 18:19:57 45° 18° (NNE) 976 2.4 -24.0°
Enters shadow 18:20:12 45° 27° (NNE) 981 2.3 -24.0°
